QPF
0.01 0.00 0.00 0.00 0.01 0.02 0.02 0.02 0.02 0.01 0.01 0.01 0.01 0.01 0.01 0.01 0.02 0.03 0.05 0.06 0.04 0.03 0.03 0.03 0.02 0.01 0.02 0.02 0.03 0.03 0.03 0.03 0.02 0.01 0.01 0.02 0.02 0.03 0.04 0.03 0.03 0.04 0.05
0.01 0.01 0.00 0.00 0.00 0.01 0.01 0.02 0.02 0.02 0.02 0.01 0.01 0.01 0.01 0.01 0.01 0.02 0.03 0.04 0.06 0.06 0.04 0.03 0.03 0.02 0.02 0.02 0.03 0.03 0.03 0.03 0.03 0.02 0.02 0.01 0.02 0.02 0.03 0.03 0.03 0.04 0.05
0.01 0.01 0.00 0.00 0.00 0.00 0.01 0.01 0.02 0.02 0.02 0.01 0.01 0.01 0.01 0.01 0.02 0.02 0.02 0.02 0.03 0.05 0.06 0.05 0.04 0.03 0.02 0.02 0.02 0.03 0.03 0.02 0.02 0.03 0.02 0.02 0.02 0.02 0.03 0.03 0.03 0.04 0.04
0.01 0.00 0.00 0.00 0.00 0.00 0.01 0.01 0.01 0.02 0.02 0.02 0.01 0.01 0.01 0.01 0.01 0.02 0.02 0.02 0.03 0.03 0.03 0.04 0.05 0.05 0.04 0.03 0.03 0.02 0.03 0.03 0.02 0.02 0.02 0.02 0.02 0.02 0.04 0.04 0.04 0.04 0.04
0.01 0.00 0.00 0.00 0.00 0.00 0.00 0.01 0.01 0.01 0.01 0.01 0.01 0.01 0.01 0.01 0.01 0.01 0.02 0.03 0.03 0.03 0.03 0.03 0.03 0.04 0.05 0.06 0.05 0.04 0.04 0.04 0.04 0.03 0.03 0.03 0.03 0.03 0.04 0.05 0.04 0.04 0.04
0.01 0.01 0.00 0.00 0.00 0.00 0.00 0.01 0.01 0.01 0.01 0.01 0.01 0.01 0.01 0.01 0.02 0.02 0.03 0.03 0.03 0.03 0.03 0.03 0.03 0.03 0.03 0.04 0.05 0.05 0.05 0.06 0.05 0.05 0.03 0.02 0.02 0.02 0.03 0.04 0.05 0.05 0.05
0.01 0.01 0.00 0.00 0.00 0.00 0.00 0.01 0.01 0.01 0.01 0.01 0.01 0.01 0.01 0.01 0.02 0.02 0.03 0.03 0.03 0.03 0.03 0.03 0.03 0.03 0.03 0.03 0.04 0.04 0.05 0.05 0.04 0.04 0.04 0.03 0.02 0.02 0.02 0.03 0.05 0.05 0.04
0.01 0.01 0.00 0.00 0.00 0.00 0.01 0.01 0.01 0.01 0.01 0.00 0.01 0.01 0.00 0.01 0.01 0.02 0.03 0.03 0.02 0.02 0.02 0.03 0.03 0.04 0.04 0.04 0.04 0.04 0.04 0.04 0.04 0.03 0.03 0.02 0.02 0.03 0.03 0.04 0.06 0.07 0.05
0.02 0.02 0.01 0.01 0.00 0.00 0.01 0.01 0.01 0.01 0.01 0.01 0.01 0.01 0.01 0.00 0.01 0.02 0.03 0.03 0.03 0.02 0.02 0.03 0.03 0.04 0.04 0.05 0.05 0.05 0.04 0.04 0.03 0.03 0.02 0.03 0.03 0.05 0.06 0.08 0.10 0.11 0.09
0.03 0.03 0.03 0.02 0.01 0.01 0.01 0.01 0.01 0.01 0.01 0.01 0.01 0.01 0.01 0.01 0.01 0.02 0.03 0.04 0.03 0.02 0.02 0.03 0.03 0.04 0.04 0.05 0.06 0.05 0.05 0.04 0.04 0.04 0.03 0.04 0.05 0.06 0.08 0.08 0.09 0.10 0.09
0.02 0.03 0.02 0.02 0.01 0.01 0.01 0.01 0.01 0.01 0.01 0.01 0.01 0.01 0.01 0.01 0.01 0.02 0.03 0.04 0.05 0.04 0.03 0.03 0.04 0.04 0.04 0.05 0.06 0.06 0.05 0.04 0.04 0.05 0.05 0.05 0.07 0.08 0.08 0.09 0.10 0.10 0.08
0.01 0.02 0.02 0.02 0.01 0.01 0.01 0.01 0.01 0.01 0.01 0.01 0.01 0.01 0.01 0.01 0.01 0.02 0.03 0.04 0.05 0.05 0.04 0.04 0.04 0.05 0.06 0.07 0.08 0.07 0.06 0.05 0.05 0.05 0.06 0.07 0.08 0.09 0.09 0.09 0.11 0.11 0.09
0.01 0.01 0.02 0.02 0.02 0.01 0.01 0.01 0.01 0.01 0.01 0.01 0.01 0.01 0.01 0.01 0.01 0.02 0.02 0.03 0.04 0.05 0.05 0.05 0.05 0.06 0.07 0.07 0.08 0.08 0.06 0.05 0.05 0.06 0.06 0.07 0.08 0.08 0.09 0.09 0.11 0.11 0.09
0.00 0.01 0.01 0.02 0.02 0.02 0.02 0.02 0.02 0.01 0.02 0.02 0.01 0.02 0.01 0.01 0.02 0.03 0.03 0.03 0.04 0.04 0.05 0.05 0.05 0.05 0.05 0.06 0.07 0.08 0.08 0.08 0.07 0.06 0.06 0.07 0.07 0.09 0.10 0.09 0.10 0.12 0.13
0.00 0.00 0.00 0.01 0.02 0.03 0.04 0.04 0.03 0.02 0.03 0.04 0.05 0.04 0.03 0.03 0.03 0.05 0.06 0.06 0.06 0.06 0.06 0.06 0.05 0.04 0.05 0.05 0.06 0.06 0.07 0.08 0.08 0.07 0.06 0.08 0.09 0.09 0.09 0.09 0.09 0.10 0.12
0.00 0.00 0.00 0.00 0.01 0.02 0.04 0.06 0.05 0.04 0.03 0.03 0.03 0.03 0.03 0.03 0.04 0.04 0.04 0.05 0.05 0.05 0.05 0.06 0.05 0.05 0.06 0.06 0.06 0.06 0.06 0.07 0.08 0.08 0.08 0.08 0.09 0.09 0.09 0.09 0.09 0.09 0.10
0.01 0.01 0.01 0.01 0.01 0.01 0.02 0.04 0.05 0.05 0.04 0.03 0.03 0.03 0.03 0.03 0.03 0.03 0.04 0.04 0.03 0.03 0.04 0.04 0.05 0.05 0.06 0.07 0.07 0.07 0.06 0.07 0.07 0.08 0.08 0.08 0.08 0.09 0.09 0.09 0.09 0.09 0.09
0.01 0.01 0.01 0.01 0.01 0.01 0.02 0.02 0.02 0.03 0.04 0.04 0.04 0.03 0.03 0.03 0.03 0.03 0.03 0.03 0.03 0.03 0.03 0.04 0.04 0.04 0.05 0.06 0.07 0.08 0.08 0.08 0.08 0.09 0.09 0.08 0.08 0.08 0.08 0.08 0.08 0.08 0.08
0.01 0.01 0.01 0.01 0.01 0.01 0.01 0.01 0.01 0.02 0.02 0.03 0.03 0.04 0.04 0.04 0.04 0.04 0.03 0.03 0.03 0.03 0.03 0.04 0.04 0.04 0.05 0.06 0.07 0.08 0.09 0.09 0.09 0.09 0.09 0.09 0.08 0.08 0.08 0.08 0.08 0.07 0.07
0.01 0.01 0.01 0.01 0.01 0.01 0.01 0.01 0.01 0.02 0.02 0.01 0.01 0.02 0.03 0.04 0.03 0.03 0.03 0.03 0.03 0.03 0.04 0.04 0.05 0.05 0.06 0.07 0.08 0.08 0.08 0.08 0.08 0.08 0.09 0.08 0.08 0.08 0.08 0.08 0.08 0.08 0.08
0.01 0.01 0.01 0.01 0.01 0.01 0.01 0.01 0.01 0.02 0.02 0.01 0.01 0.02 0.03 0.04 0.03 0.03 0.03 0.03 0.04 0.04 0.05 0.06 0.06 0.07 0.07 0.08 0.08 0.08 0.08 0.08 0.08 0.07 0.08 0.08 0.08 0.08 0.07 0.07 0.07 0.07 0.07
0.01 0.01 0.01 0.01 0.01 0.01 0.01 0.01 0.01 0.01 0.01 0.01 0.01 0.01 0.02 0.02 0.02 0.02 0.02 0.02 0.03 0.03 0.04 0.05 0.06 0.07 0.07 0.08 0.09 0.08 0.08 0.07 0.07 0.07 0.07 0.07 0.08 0.08 0.07 0.08 0.07 0.07 0.07
0.01 0.01 0.01 0.01 0.01 0.01 0.01 0.01 0.01 0.01 0.01 0.01 0.01 0.01 0.01 0.02 0.02 0.02 0.02 0.02 0.02 0.03 0.03 0.04 0.05 0.05 0.06 0.07 0.08 0.08 0.08 0.07 0.07 0.07 0.07 0.07 0.07 0.07 0.07 0.07 0.07 0.07 0.07
0.01 0.01 0.01 0.01 0.01 0.01 0.01 0.01 0.01 0.02 0.02 0.01 0.01 0.02 0.02 0.02 0.02 0.02 0.02 0.03 0.03 0.03 0.03 0.04 0.04 0.04 0.04 0.05 0.06 0.06 0.07 0.08 0.08 0.07 0.07 0.07 0.06 0.07 0.06 0.06 0.06 0.07 0.06
0.01 0.01 0.01 0.01 0.01 0.01 0.01 0.01 0.01 0.01 0.02 0.02 0.02 0.02 0.02 0.02 0.02 0.02 0.03 0.03 0.03 0.03 0.03 0.03 0.04 0.04 0.04 0.04 0.05 0.05 0.05 0.06 0.07 0.07 0.06 0.06 0.06 0.06 0.06 0.05 0.05 0.05 0.05
0.01 0.01 0.01 0.01 0.01 0.02 0.02 0.02 0.01 0.01 0.01 0.01 0.01 0.02 0.02 0.02 0.02 0.03 0.03 0.03 0.03 0.03 0.03 0.03 0.03 0.03 0.03 0.03 0.03 0.04 0.04 0.04 0.05 0.05 0.06 0.06 0.05 0.05 0.05 0.05 0.04 0.04 0.04
MSLP
1029.20 1029.23 1029.20 1029.13 1029.02 1028.92 1028.82 1028.75 1028.68 1028.60 1028.49 1028.33 1028.10 1027.81 1027.47 1027.12 1026.80 1026.55 1026.38 1026.32 1026.34 1026.43 1026.53 1026.62 1026.64 1026.58 1026.43 1026.22 1025.96 1025.72 1025.54 1025.43 1025.42 1025.49 1025.64 1025.80 1025.93 1026.00 1025.97 1025.84 1025.61 1025.30 1024.96
1029.75 1029.76 1029.70 1029.58 1029.43 1029.27 1029.13 1029.02 1028.92 1028.83 1028.71 1028.55 1028.33 1028.05 1027.71 1027.36 1027.03 1026.76 1026.57 1026.48 1026.48 1026.54 1026.64 1026.72 1026.75 1026.70 1026.56 1026.35 1026.10 1025.86 1025.65 1025.52 1025.47 1025.52 1025.63 1025.78 1025.91 1025.99 1026.00 1025.91 1025.72 1025.47 1025.16
1030.20 1030.16 1030.05 1029.88 1029.68 1029.48 1029.29 1029.14 1029.02 1028.92 1028.80 1028.65 1028.44 1028.17 1027.85 1027.51 1027.18 1026.89 1026.67 1026.55 1026.52 1026.56 1026.63 1026.70 1026.73 1026.69 1026.58 1026.39 1026.16 1025.93 1025.72 1025.58 1025.52 1025.54 1025.63 1025.76 1025.88 1025.97 1025.99 1025.92 1025.78 1025.56 1025.29
1030.56 1030.46 1030.29 1030.07 1029.82 1029.57 1029.35 1029.17 1029.03 1028.91 1028.79 1028.65 1028.46 1028.21 1027.92 1027.59 1027.25 1026.95 1026.72 1026.56 1026.49 1026.49 1026.53 1026.58 1026.61 1026.58 1026.49 1026.33 1026.13 1025.92 1025.74 1025.60 1025.53 1025.53 1025.60 1025.70 1025.80 1025.88 1025.90 1025.85 1025.73 1025.54 1025.30
1030.88 1030.71 1030.48 1030.21 1029.91 1029.62 1029.37 1029.16 1028.99 1028.87 1028.75 1028.61 1028.43 1028.20 1027.92 1027.60 1027.27 1026.96 1026.70 1026.51 1026.40 1026.36 1026.37 1026.39 1026.40 1026.37 1026.29 1026.16 1025.99 1025.81 1025.65 1025.52 1025.45 1025.44 1025.48 1025.55 1025.64 1025.69 1025.71 1025.67 1025.56 1025.39 1025.18
1031.18 1030.94 1030.66 1030.34 1030.00 1029.68 1029.39 1029.16 1028.97 1028.83 1028.70 1028.56 1028.38 1028.16 1027.88 1027.57 1027.23 1026.91 1026.63 1026.41 1026.25 1026.16 1026.12 1026.11 1026.09 1026.05 1025.98 1025.86 1025.72 1025.57 1025.42 1025.31 1025.24 1025.22 1025.25 1025.30 1025.35 1025.39 1025.40 1025.36 1025.26 1025.11 1024.92
1031.48 1031.18 1030.85 1030.49 1030.13 1029.78 1029.47 1029.21 1029.00 1028.82 1028.67 1028.51 1028.31 1028.08 1027.80 1027.47 1027.13 1026.79 1026.48 1026.22 1026.03 1025.89 1025.80 1025.74 1025.70 1025.64 1025.56 1025.45 1025.32 1025.19 1025.07 1024.97 1024.90 1024.88 1024.89 1024.92 1024.96 1024.99 1024.99 1024.95 1024.86 1024.73 1024.57
1031.77 1031.44 1031.07 1030.68 1030.30 1029.93 1029.60 1029.31 1029.07 1028.86 1028.66 1028.46 1028.24 1027.97 1027.66 1027.31 1026.94 1026.58 1026.24 1025.95 1025.71 1025.53 1025.40 1025.30 1025.22 1025.14 1025.04 1024.94 1024.82 1024.70 1024.59 1024.51 1024.46 1024.44 1024.44 1024.47 1024.50 1024.53 1024.52 1024.49 1024.42 1024.31 1024.17
1032.06 1031.69 1031.30 1030.89 1030.49 1030.11 1029.76 1029.44 1029.16 1028.91 1028.66 1028.40 1028.12 1027.80 1027.45 1027.06 1026.66 1026.27 1025.91 1025.59 1025.32 1025.11 1024.94 1024.81 1024.70 1024.59 1024.49 1024.38 1024.27 1024.16 1024.07 1024.00 1023.97 1023.96 1023.98 1024.01 1024.05 1024.07 1024.08 1024.06 1024.01 1023.92 1023.80
1032.31 1031.91 1031.50 1031.08 1030.67 1030.27 1029.90 1029.56 1029.24 1028.93 1028.62 1028.30 1027.95 1027.57 1027.16 1026.73 1026.30 1025.88 1025.49 1025.15 1024.86 1024.63 1024.44 1024.29 1024.17 1024.05 1023.94 1023.84 1023.74 1023.65 1023.58 1023.54 1023.52 1023.53 1023.57 1023.62 1023.67 1023.71 1023.73 1023.72 1023.69 1023.62 1023.52
1032.49 1032.08 1031.64 1031.21 1030.78 1030.37 1029.98 1029.61 1029.25 1028.89 1028.52 1028.13 1027.72 1027.27 1026.80 1026.32 1025.85 1025.41 1025.00 1024.65 1024.36 1024.13 1023.94 1023.80 1023.68 1023.57 1023.47 1023.38 1023.30 1023.24 1023.19 1023.18 1023.19 1023.23 1023.29 1023.36 1023.42 1023.48 1023.52 1023.52 1023.50 1023.44 1023.36
1032.60 1032.15 1031.69 1031.24 1030.80 1030.37 1029.96 1029.56 1029.17 1028.76 1028.34 1027.88 1027.40 1026.89 1026.37 1025.85 1025.36 1024.90 1024.49 1024.15 1023.87 1023.66 1023.49 1023.37 1023.27 1023.18 1023.11 1023.05 1023.00 1022.97 1022.95 1022.97 1023.01 1023.08 1023.16 1023.25 1023.34 1023.41 1023.45 1023.46 1023.44 1023.38 1023.30
1032.59 1032.10 1031.61 1031.14 1030.68 1030.24 1029.82 1029.40 1028.97 1028.53 1028.06 1027.56 1027.03 1026.48 1025.92 1025.37 1024.86 1024.40 1024.00 1023.68 1023.43 1023.25 1023.12 1023.03 1022.97 1022.92 1022.89 1022.86 1022.85 1022.85 1022.88 1022.92 1022.99 1023.09 1023.19 1023.29 1023.38 1023.45 1023.49 1023.50 1023.47 1023.40 1023.29
1032.47 1031.94 1031.41 1030.91 1030.44 1029.98 1029.55 1029.12 1028.68 1028.22 1027.72 1027.19 1026.63 1026.05 1025.47 1024.91 1024.40 1023.95 1023.57 1023.28 1023.07 1022.93 1022.85 1022.81 1022.79 1022.79 1022.80 1022.82 1022.85 1022.88 1022.94 1023.01 1023.10 1023.20 1023.31 1023.42 1023.50 1023.56 1023.58 1023.57 1023.51 1023.41 1023.28
1032.23 1031.66 1031.10 1030.58 1030.09 1029.63 1029.19 1028.76 1028.32 1027.85 1027.34 1026.81 1026.24 1025.65 1025.07 1024.52 1024.03 1023.60 1023.26 1023.00 1022.83 1022.73 1022.70 1022.70 1022.73 1022.78 1022.83 1022.88 1022.94 1023.01 1023.08 1023.17 1023.27 1023.37 1023.47 1023.56 1023.62 1023.65 1023.64 1023.59 1023.49 1023.35 1023.17
1031.89 1031.28 1030.70 1030.17 1029.67 1029.22 1028.78 1028.36 1027.92 1027.47 1026.97 1026.45 1025.90 1025.33 1024.77 1024.25 1023.78 1023.39 1023.08 1022.86 1022.73 1022.67 1022.67 1022.71 1022.78 1022.86 1022.94 1023.02 1023.10 1023.18 1023.27 1023.35 1023.44 1023.52 1023.60 1023.65 1023.67 1023.65 1023.59 1023.49 1023.33 1023.14 1022.92
1031.47 1030.84 1030.26 1029.72 1029.23 1028.78 1028.36 1027.95 1027.54 1027.10 1026.64 1026.14 1025.62 1025.10 1024.58 1024.10 1023.67 1023.32 1023.05 1022.87 1022.77 1022.74 1022.77 1022.83 1022.92 1023.02 1023.11 1023.20 1023.29 1023.36 1023.43 1023.50 1023.56 1023.60 1023.63 1023.63 1023.59 1023.52 1023.39 1023.22 1023.01 1022.76 1022.48
1031.00 1030.38 1029.80 1029.27 1028.79 1028.36 1027.96 1027.57 1027.18 1026.78 1026.35 1025.90 1025.43 1024.96 1024.50 1024.07 1023.70 1023.39 1023.16 1023.02 1022.94 1022.93 1022.97 1023.05 1023.14 1023.23 1023.32 1023.40 1023.47 1023.53 1023.57 1023.59 1023.60 1023.59 1023.55 1023.49 1023.38 1023.23 1023.03 1022.80 1022.52 1022.21 1021.87
1030.50 1029.90 1029.34 1028.84 1028.38 1027.96 1027.58 1027.22 1026.86 1026.49 1026.11 1025.71 1025.30 1024.89 1024.50 1024.14 1023.83 1023.58 1023.39 1023.28 1023.22 1023.22 1023.26 1023.33 1023.41 1023.49 1023.56 1023.61 1023.64 1023.66 1023.65 1023.62 1023.56 1023.48 1023.37 1023.22 1023.03 1022.80 1022.53 1022.22 1021.88 1021.51 1021.13
1030.00 1029.44 1028.91 1028.43 1027.99 1027.59 1027.23 1026.88 1026.55 1026.22 1025.88 1025.54 1025.20 1024.87 1024.56 1024.27 1024.03 1023.84 1023.69 1023.61 1023.57 1023.57 1023.61 1023.66 1023.71 1023.76 1023.79 1023.80 1023.78 1023.74 1023.67 1023.57 1023.44 1023.28 1023.08 1022.84 1022.57 1022.26 1021.91 1021.54 1021.14 1020.73 1020.30
1029.52 1029.00 1028.51 1028.05 1027.63 1027.25 1026.89 1026.56 1026.25 1025.95 1025.66 1025.38 1025.11 1024.86 1024.63 1024.42 1024.25 1024.12 1024.02 1023.96 1023.94 1023.94 1023.96 1023.98 1024.00 1024.00 1023.99 1023.95 1023.87 1023.77 1023.63 1023.45 1023.24 1022.99 1022.70 1022.38 1022.02 1021.63 1021.22 1020.79 1020.35 1019.90 1019.45
1029.08 1028.60 1028.14 1027.70 1027.29 1026.91 1026.55 1026.23 1025.94 1025.67 1025.43 1025.21 1025.01 1024.83 1024.68 1024.55 1024.45 1024.37 1024.31 1024.28 1024.26 1024.26 1024.25 1024.25 1024.22 1024.18 1024.12 1024.02 1023.88 1023.70 1023.49 1023.24 1022.94 1022.61 1022.24 1021.84 1021.41 1020.96 1020.49 1020.02 1019.55 1019.08 1018.63
1028.70 1028.25 1027.81 1027.38 1026.97 1026.59 1026.23 1025.91 1025.63 1025.39 1025.19 1025.02 1024.89 1024.78 1024.70 1024.64 1024.59 1024.56 1024.54 1024.52 1024.50 1024.47 1024.44 1024.39 1024.33 1024.23 1024.11 1023.95 1023.75 1023.51 1023.23 1022.90 1022.53 1022.12 1021.69 1021.22 1020.73 1020.24 1019.74 1019.24 1018.76 1018.30 1017.87
1028.39 1027.96 1027.53 1027.10 1026.69 1026.29 1025.94 1025.62 1025.35 1025.13 1024.96 1024.84 1024.76 1024.71 1024.68 1024.67 1024.66 1024.66 1024.65 1024.63 1024.59 1024.54 1024.47 1024.38 1024.26 1024.11 1023.93 1023.71 1023.45 1023.15 1022.81 1022.42 1021.99 1021.53 1021.04 1020.53 1020.01 1019.49 1018.98 1018.49 1018.03 1017.59 1017.19
1028.14 1027.72 1027.30 1026.87 1026.45 1026.05 1025.70 1025.38 1025.13 1024.93 1024.79 1024.70 1024.65 1024.64 1024.64 1024.65 1024.66 1024.65 1024.63 1024.59 1024.52 1024.43 1024.31 1024.16 1023.99 1023.79 1023.55 1023.28 1022.97 1022.62 1022.23 1021.79 1021.33 1020.83 1020.31 1019.78 1019.25 1018.73 1018.24 1017.78 1017.35 1016.96 1016.62
1027.96 1027.54 1027.12 1026.69 1026.27 1025.88 1025.53 1025.23 1024.98 1024.80 1024.68 1024.61 1024.58 1024.57 1024.58 1024.58 1024.58 1024.55 1024.49 1024.40 1024.28 1024.13 1023.95 1023.75 1023.52 1023.26 1022.97 1022.65 1022.30 1021.91 1021.49 1021.03 1020.54 1020.03 1019.50 1018.98 1018.46 1017.98 1017.52 1017.11 1016.74 1016.42 1016.14
Thickness
5351 5349 5348 5347 5346 5346 5347 5347 5349 5350 5353 5356 5360 5363 5367 5371 5374 5378 5383 5386 5390 5394 5397 5401 5405 5409 5414 5417 5420 5424 5428 5433 5439 5446 5449 5453 5457 5462 5467 5473 5478 5484 5490
5339 5337 5336 5335 5334 5333 5334 5334 5336 5338 5340 5343 5346 5350 5354 5358 5362 5366 5370 5374 5378 5382 5386 5389 5393 5397 5402 5405 5408 5412 5416 5420 5424 5430 5434 5438 5443 5448 5454 5459 5465 5471 5476
5327 5325 5324 5322 5322 5321 5321 5322 5324 5326 5328 5331 5333 5338 5342 5346 5350 5354 5358 5362 5367 5371 5374 5377 5382 5384 5389 5393 5396 5400 5404 5408 5411 5415 5421 5425 5429 5434 5439 5445 5450 5457 5463
5316 5314 5312 5311 5310 5309 5310 5311 5312 5314 5317 5319 5322 5326 5330 5333 5338 5342 5346 5352 5356 5361 5364 5368 5371 5374 5378 5382 5385 5389 5392 5395 5398 5403 5408 5412 5416 5420 5424 5430 5436 5442 5449
5305 5303 5301 5300 5299 5299 5299 5300 5301 5303 5305 5308 5311 5315 5318 5322 5326 5331 5336 5341 5347 5351 5355 5358 5362 5365 5368 5372 5376 5379 5381 5384 5387 5391 5396 5400 5404 5407 5412 5417 5422 5428 5434
5294 5292 5291 5290 5289 5289 5289 5289 5290 5292 5294 5296 5300 5303 5307 5311 5315 5321 5326 5332 5336 5341 5345 5349 5352 5355 5359 5363 5366 5369 5371 5374 5377 5380 5385 5389 5395 5398 5400 5403 5408 5413 5421
5284 5282 5281 5279 5279 5279 5279 5279 5280 5281 5283 5286 5289 5292 5296 5300 5305 5311 5316 5321 5325 5330 5334 5338 5342 5346 5349 5352 5355 5358 5361 5363 5367 5371 5375 5380 5384 5388 5389 5393 5396 5400 5409
5274 5272 5270 5269 5269 5269 5269 5269 5270 5272 5273 5276 5279 5283 5287 5291 5296 5301 5306 5310 5315 5319 5323 5327 5331 5335 5338 5341 5344 5347 5350 5353 5356 5360 5365 5370 5373 5375 5378 5382 5385 5388 5393
5264 5262 5261 5259 5259 5259 5260 5260 5261 5262 5264 5267 5270 5274 5277 5282 5286 5291 5295 5300 5305 5309 5313 5317 5321 5325 5329 5332 5334 5337 5340 5344 5346 5349 5353 5358 5361 5364 5367 5369 5372 5375 5382
5255 5253 5251 5250 5250 5250 5251 5251 5252 5253 5256 5258 5262 5264 5267 5272 5276 5281 5286 5290 5296 5301 5305 5309 5313 5317 5320 5323 5325 5328 5331 5335 5336 5339 5342 5345 5349 5352 5356 5360 5364 5366 5371
5245 5244 5244 5242 5242 5242 5242 5242 5243 5244 5247 5249 5252 5256 5259 5263 5268 5272 5276 5280 5285 5290 5294 5299 5304 5308 5312 5315 5317 5319 5323 5325 5326 5328 5330 5333 5337 5341 5345 5349 5353 5357 5361
5236 5235 5235 5234 5234 5235 5234 5234 5235 5235 5238 5240 5244 5248 5251 5254 5259 5263 5267 5272 5276 5280 5284 5288 5293 5298 5302 5306 5308 5310 5313 5314 5316 5318 5320 5323 5327 5331 5334 5338 5343 5346 5351
5227 5227 5227 5227 5226 5226 5225 5226 5227 5228 5230 5233 5236 5240 5244 5247 5250 5255 5259 5263 5268 5271 5275 5279 5284 5288 5292 5295 5298 5300 5301 5303 5306 5308 5311 5314 5317 5320 5323 5327 5331 5335 5339
5219 5219 5219 5219 5218 5218 5218 5219 5221 5222 5223 5226 5229 5232 5236 5239 5242 5246 5250 5254 5259 5263 5266 5270 5274 5277 5280 5283 5286 5288 5290 5293 5296 5299 5302 5304 5307 5309 5313 5317 5320 5324 5328
5212 5211 5211 5212 5210 5210 5211 5211 5213 5215 5216 5219 5222 5225 5228 5232 5235 5239 5242 5247 5250 5254 5257 5260 5262 5265 5268 5272 5275 5277 5280 5283 5286 5290 5293 5295 5298 5301 5304 5307 5311 5314 5317
5205 5204 5203 5204 5204 5204 5205 5206 5207 5208 5211 5213 5215 5218 5221 5224 5228 5231 5235 5238 5242 5245 5247 5249 5251 5254 5257 5261 5264 5267 5270 5273 5276 5280 5283 5287 5290 5293 5295 5298 5301 5304 5307
5197 5197 5196 5197 5196 5197 5198 5199 5200 5203 5204 5205 5208 5211 5213 5216 5219 5223 5226 5230 5232 5235 5235 5238 5240 5243 5246 5250 5253 5256 5260 5264 5267 5271 5274 5278 5280 5283 5286 5289 5291 5294 5297
5191 5191 5190 5189 5189 5190 5190 5191 5192 5194 5196 5198 5200 5202 5205 5208 5211 5214 5217 5220 5221 5223 5224 5226 5229 5232 5235 5239 5243 5246 5251 5255 5259 5262 5266 5268 5271 5274 5276 5279 5282 5285 5288
5185 5184 5184 5183 5183 5183 5184 5184 5185 5186 5188 5190 5192 5194 5197 5199 5202 5204 5206 5207 5209 5211 5214 5216 5219 5222 5225 5229 5233 5237 5241 5245 5249 5253 5257 5260 5263 5265 5268 5271 5274 5278 5280
5178 5178 5178 5178 5177 5177 5177 5178 5178 5179 5180 5181 5183 5185 5188 5191 5192 5194 5195 5196 5198 5201 5204 5207 5210 5213 5217 5221 5225 5229 5233 5237 5240 5244 5248 5251 5255 5258 5261 5264 5267 5270 5272
5172 5171 5172 5171 5170 5170 5171 5171 5171 5171 5172 5174 5175 5177 5180 5181 5181 5183 5185 5187 5188 5191 5194 5198 5201 5205 5208 5213 5217 5221 5225 5229 5233 5237 5240 5244 5247 5250 5254 5257 5259 5262 5265
5165 5164 5164 5163 5163 5163 5164 5165 5165 5165 5166 5167 5168 5170 5172 5172 5173 5174 5176 5179 5181 5184 5187 5190 5194 5197 5201 5205 5210 5214 5218 5222 5226 5230 5233 5238 5241 5244 5247 5249 5252 5254 5257
5159 5158 5157 5157 5157 5158 5158 5157 5158 5158 5159 5160 5162 5163 5164 5165 5166 5168 5170 5172 5175 5178 5181 5185 5188 5192 5196 5200 5204 5208 5212 5216 5220 5223 5228 5232 5236 5238 5241 5243 5244 5246 5248
5153 5151 5151 5151 5151 5151 5151 5152 5152 5153 5154 5155 5156 5157 5158 5159 5160 5162 5164 5166 5169 5173 5176 5180 5183 5188 5192 5196 5200 5204 5207 5211 5215 5218 5222 5225 5228 5231 5233 5235 5237 5239 5241
5147 5146 5146 5145 5146 5146 5147 5147 5148 5148 5149 5149 5150 5152 5152 5153 5155 5157 5159 5161 5164 5167 5171 5175 5179 5183 5187 5192 5196 5199 5203 5207 5211 5214 5217 5219 5222 5224 5226 5228 5230 5231 5233
5142 5141 5140 5140 5140 5141 5142 5142 5143 5143 5143 5144 5145 5146 5147 5148 5150 5151 5154 5156 5159 5163 5166 5170 5174 5178 5182 5187 5191 5195 5199 5203 5206 5209 5211 5213 5215 5217 5219 5221 5223 5224 5225